{"data":{"norad_id":68738,"intl_designator":"2026-082L","name":"STARLINK-37331","alt_names":[],"object_type":"PAYLOAD","status":"ACTIVE","operator":null,"country":"US","launch_date":"2026-04-15","launch_site_code":"AFWTR","launch_vehicle":null,"mission":null,"orbit_class":"UNKNOWN","rcs_meters":null,"size_class":null,"mass_kg":null,"dimensions":null,"purposes":["comms"],"wikipedia_slug":null,"has_3d_model":false,"image_url":null,"decayed_at":null,"tle_current":{"epoch":"2026-05-25T02:51:20.563200Z","epoch_age_seconds":75353,"freshness":"FRESH","line1":"1 68738U 26082L   26145.11898800  .00022271  00000+0  40972-3 0  9991","line2":"2 68738  97.2847   8.6527 0001627  86.4524 273.6913 15.49207329  6148","mean_motion":15.49207329,"eccentricity":0.0001627,"inclination_deg":97.2847,"raan_deg":8.6527,"arg_perigee_deg":86.4524,"mean_anomaly_deg":273.6913,"bstar":0.00040972,"rev_number":614,"period_min":92.950760885537,"perigee_km":417.93775386983,"apogee_km":420.14955645501,"semimajor_km":6797.1806551624,"source":"CELESTRAK","updated_at":"2026-05-25T13:38:22.006587Z"}}}